Anaktuvuk Pass, AK

9:31 AM AKST on February 27, 2017 (GMT -0900)
Anaktuvuk Pass

Weather History for PAKP - November, 2011

Change the Weather History Date:

Wednesday, November 30, 2011

  Actual Average Record
Temperature  
Mean Temperature -7 °F -  
Max Temperature 0 °F 0 °F 32 °F (2002)
Min Temperature -14 °F -8 °F -27 °F (2016)
Degree Days  
Heating Degree Days 72    
Moisture  
Dew Point -17 °F    
Average Humidity 65    
Maximum Humidity 77    
Minimum Humidity 58    
Precipitation  
Precipitation 0.00 in - - ()
Sea Level Pressure  
Sea Level Pressure 29.59 in    
Wind  
Wind Speed 5 mph (ESE)    
Max Wind Speed 12 mph    
Max Gust Speed -    
Visibility 7 miles    
Events      
Averages and records for this station are not official NWS values.
T = Trace of Precipitation, MM = Missing Value Source: NWS Daily Summary

Daily Weather History Graph

Daily Weather History Graph

Search for Another Location

Airport or City:

Trip Planner

Search our weather history database for the weather conditions in past years. The results will help you decide how hot, cold, wet, or windy it might be!

Date:

Astronomy

Nov. 30, 2011 Rise Set
Actual Time 11:41 AM AKST 2:08 PM AKST
Civil Twilight 9:49 AM AKST 4:01 PM AKST
Nautical Twilight 8:27 AM AKST 5:23 PM AKST
Astronomical Twilight 7:17 AM AKST 6:32 PM AKST
Moon 1:41 PM AKST (11/30) 10:52 PM AKST (11/30)
Length of Visible Light 6h 11m
Length of Day
2h 26m
Waxing Crescent, 35% of the Moon is Illuminated
Nov 30
Waxing Crescent
Dec 2
First Quarter
Dec 10
Full
Dec 17
Last Quarter
Dec 24
New

Hourly Weather History & Observations

Time (AKST) Temp. Windchill Dew Point Humidity Pressure Visibility Wind Dir Wind Speed Gust Speed Precip Events Conditions
12:16 AM -5.8 °F -24.4 °F -14.8 °F 65% 29.73 in 10.0 mi West 11.5 mph - N/A   Overcast
12:36 AM -5.8 °F -18.4 °F -13.0 °F 71% 29.73 in 10.0 mi WNW 5.8 mph - N/A   Mostly Cloudy
12:56 AM -5.8 °F - -14.8 °F 65% 29.72 in 10.0 mi Calm Calm - N/A   Overcast
1:16 AM -5.8 °F - -14.8 °F 65% 29.72 in 10.0 mi Calm Calm - N/A   Overcast
1:36 AM -5.8 °F -14.5 °F -14.8 °F 65% 29.71 in 10.0 mi WNW 3.5 mph - N/A   Overcast
1:56 AM -5.8 °F - -13.0 °F 71% 29.70 in 10.0 mi Calm Calm - N/A   Overcast
2:16 AM -5.8 °F - -14.8 °F 65% 29.69 in 5.0 mi Calm Calm - N/A   Overcast
2:36 AM -5.8 °F -16.7 °F -11.2 °F 77% 29.67 in 8.0 mi NW 4.6 mph - N/A   Mostly Cloudy
2:56 AM -4.0 °F -14.6 °F -13.0 °F 65% 29.67 in 5.0 mi WNW 4.6 mph - N/A   Overcast
3:36 AM -2.2 °F -16.8 °F -11.2 °F 66% 29.66 in 5.0 mi West 8.1 mph - N/A   Overcast
3:56 AM -2.2 °F -14.2 °F - N/A% 29.65 in 10.0 mi West 5.8 mph - N/A   Overcast
4:16 AM -2.2 °F - -9.4 °F 71% 29.65 in 4.0 mi Calm Calm - N/A   Overcast
4:36 AM -2.2 °F -12.5 °F -11.2 °F 66% 29.65 in 2.0 mi West 4.6 mph - N/A   Overcast
4:56 AM -2.2 °F - -11.2 °F 66% 29.64 in 5.0 mi Calm Calm - N/A   Overcast
5:16 AM -2.2 °F -10.4 °F -9.4 °F 71% 29.64 in 5.0 mi West 3.5 mph - N/A   Overcast
5:36 AM -2.2 °F -10.4 °F -9.4 °F 71% 29.63 in 5.0 mi NW 3.5 mph - N/A   Overcast
5:56 AM -2.2 °F - -9.4 °F 71% 29.62 in 4.0 mi Calm Calm - N/A   Overcast
6:16 AM -2.2 °F - -9.4 °F 71% 29.62 in 3.0 mi Calm Calm - N/A   Overcast
6:36 AM -2.2 °F - -9.4 °F 71% 29.62 in 3.0 mi Calm Calm - N/A   Overcast
6:56 AM -0.4 °F - -7.6 °F 72% 29.62 in 3.0 mi Calm Calm - N/A   Overcast
7:16 AM -2.2 °F - -11.2 °F 66% 29.61 in 3.0 mi Calm Calm - N/A   Overcast
7:36 AM -2.2 °F - -11.2 °F 66% 29.61 in 6.0 mi Calm Calm - N/A   Mostly Cloudy
7:56 AM -4.0 °F -12.4 °F -14.8 °F 60% 29.61 in 9.0 mi West 3.5 mph - N/A   Overcast
8:16 AM -4.0 °F - -13.0 °F 65% 29.61 in 10.0 mi Calm Calm - N/A   Overcast
8:36 AM -5.8 °F - -13.0 °F 71% 29.60 in 10.0 mi Calm Calm - N/A   Mostly Cloudy
8:56 AM -5.8 °F - -14.8 °F 65% 29.59 in 10.0 mi Calm Calm - N/A   Overcast
9:16 AM -5.8 °F - -13.0 °F 71% 29.59 in 9.0 mi Calm Calm - N/A   Overcast
9:36 AM -5.8 °F - -14.8 °F 65% 29.59 in 10.0 mi Calm Calm - N/A   Overcast
9:56 AM -7.6 °F -22.1 °F -16.6 °F 65% 29.59 in 10.0 mi ESE 6.9 mph - N/A   Scattered Clouds
10:16 AM -7.6 °F -18.8 °F -18.4 °F 59% 29.59 in 10.0 mi ESE 4.6 mph - N/A   Clear
10:36 AM -9.4 °F -20.9 °F -18.4 °F 65% 29.59 in 10.0 mi East 4.6 mph - N/A   Mostly Cloudy
10:56 AM -9.4 °F -20.9 °F -18.4 °F 65% 29.59 in 9.0 mi East 4.6 mph - N/A   Mostly Cloudy
11:16 AM -9.4 °F -22.7 °F -16.6 °F 71% 29.59 in 7.0 mi East 5.8 mph - N/A   Mostly Cloudy
11:36 AM -9.4 °F -22.7 °F -18.4 °F 65% 29.59 in 4.0 mi East 5.8 mph - N/A   Overcast
11:56 AM -9.4 °F -22.7 °F -18.4 °F 65% 29.60 in 4.0 mi East 5.8 mph - N/A   Mostly Cloudy
12:16 PM -11.2 °F -24.8 °F -20.2 °F 64% 29.59 in 6.0 mi East 5.8 mph - N/A   Overcast
12:36 PM -11.2 °F -24.8 °F -20.2 °F 64% 29.59 in 10.0 mi East 5.8 mph - N/A   Overcast
12:56 PM -11.2 °F -24.8 °F -20.2 °F 64% 29.59 in 10.0 mi East 5.8 mph - N/A   Overcast
1:16 PM -11.2 °F -24.8 °F -20.2 °F 64% 29.58 in 4.0 mi East 5.8 mph - N/A   Overcast
1:36 PM -11.2 °F -26.4 °F -20.2 °F 64% 29.58 in 4.0 mi ESE 6.9 mph - N/A   Overcast
1:56 PM -11.2 °F -24.8 °F -22.0 °F 59% 29.57 in 5.0 mi East 5.8 mph - N/A   Overcast
2:16 PM -13.0 °F -27.0 °F -23.8 °F 59% 29.56 in 10.0 mi ESE 5.8 mph - N/A   Mostly Cloudy
2:36 PM - - - N/A% 29.55 in 4.0 mi ESE 4.6 mph - N/A   Overcast
2:56 PM -13.0 °F -28.6 °F -23.8 °F 59% 29.55 in 10.0 mi ESE 6.9 mph - N/A   Scattered Clouds
3:16 PM -14.8 °F -30.8 °F -25.6 °F 58% 29.55 in 10.0 mi ESE 6.9 mph - N/A   Clear
3:36 PM -14.8 °F -32.2 °F -23.8 °F 64% 29.54 in 10.0 mi ESE 8.1 mph - N/A   Scattered Clouds
3:56 PM -14.8 °F -30.8 °F -22.0 °F 70% 29.53 in 10.0 mi ESE 6.9 mph - N/A   Overcast
4:16 PM -13.0 °F -28.6 °F -23.8 °F 59% 29.53 in 8.0 mi ESE 6.9 mph - N/A   Overcast
4:36 PM -13.0 °F -28.6 °F -23.8 °F 59% 29.53 in 5.0 mi ESE 6.9 mph - N/A   Mostly Cloudy
4:56 PM -13.0 °F -27.0 °F -22.0 °F 64% 29.53 in 5.0 mi ESE 5.8 mph - N/A   Overcast
5:16 PM -13.0 °F -27.0 °F -23.8 °F 59% 29.53 in 7.0 mi ESE 5.8 mph - N/A   Overcast
5:36 PM -13.0 °F -30.0 °F -23.8 °F 59% 29.52 in 8.0 mi ESE 8.1 mph - N/A   Overcast
5:56 PM -13.0 °F -28.6 °F -23.8 °F 59% 29.52 in 8.0 mi ESE 6.9 mph - N/A   Overcast
6:16 PM -13.0 °F -28.6 °F -22.0 °F 64% 29.51 in 5.0 mi ESE 6.9 mph - N/A   Overcast
6:36 PM -14.8 °F -33.5 °F -23.8 °F 64% 29.51 in 5.0 mi ESE 9.2 mph - N/A   Overcast
6:56 PM -14.8 °F -32.2 °F -23.8 °F 64% 29.50 in 5.0 mi ESE 8.1 mph - N/A   Mostly Cloudy
7:16 PM -14.8 °F -32.2 °F -23.8 °F 64% 29.49 in 6.0 mi ESE 8.1 mph - N/A   Overcast
7:36 PM -14.8 °F -33.5 °F -23.8 °F 64% 29.48 in 10.0 mi ESE 9.2 mph - N/A   Overcast
7:56 PM -14.8 °F -32.2 °F -23.8 °F 64% 29.47 in 10.0 mi ESE 8.1 mph - N/A   Overcast
8:16 PM -14.8 °F -32.2 °F -23.8 °F 64% 29.46 in 8.0 mi ESE 8.1 mph - N/A   Overcast
8:36 PM -14.8 °F -32.2 °F -23.8 °F 64% 29.46 in 5.0 mi ESE 8.1 mph - N/A   Overcast
8:56 PM -14.8 °F -30.8 °F -23.8 °F 64% 29.45 in 5.0 mi East 6.9 mph - N/A   Overcast
9:16 PM -14.8 °F -30.8 °F -23.8 °F 64% 29.45 in 8.0 mi ESE 6.9 mph - N/A   Overcast
9:36 PM -13.0 °F -31.3 °F -22.0 °F 64% 29.44 in 5.0 mi ESE 9.2 mph - N/A   Overcast
10:16 PM -13.0 °F -28.6 °F -22.0 °F 64% 29.43 in 7.0 mi ESE 6.9 mph - N/A   Overcast
10:36 PM -13.0 °F -31.3 °F -22.0 °F 64% 29.43 in 8.0 mi ESE 9.2 mph - N/A   Overcast
10:56 PM -13.0 °F -30.0 °F -23.8 °F 59% 29.42 in 5.0 mi ESE 8.1 mph - N/A   Overcast
11:16 PM -14.8 °F -30.8 °F -23.8 °F 64% 29.42 in 10.0 mi ESE 6.9 mph - N/A   Overcast
11:36 PM -14.8 °F -32.2 °F -23.8 °F 64% 29.41 in 10.0 mi ESE 8.1 mph - N/A   Overcast
11:56 PM -14.8 °F -30.8 °F -23.8 °F 64% 29.41 in 10.0 mi ESE 6.9 mph - N/A   Overcast